www.pogodaiklimat.ru

Погода и климат >> Архив погоды >> Мексика >> La Paz


ПОГОДА в La Paz

  • Прогноз погоды в La Paz
  • Монитор погоды в La Paz
  • Климат города

АРХИВ ПОГОДЫ в La Paz

Время (UTC), дата Ветер
(напр.,м/с)
 
Видим.   Явления Облачность Т
(С)
Тd
(С)
f
(%)
Тe
(С)
Тes
(С)
Комфортность P
(гПа)
Po
(гПа)
Тmin
(С)
Tmax
(С)
R
(мм)
R24
(мм)
S
(см)
06 8.08 В 1 2000 м в посл. час морось 9/5 1000 м
[Sc diur, vesp As op]
+27.8 +22.1 71 +45 +45 опасность
перегрева
1011.6 1009.5 0.0
09 8.08 В 1 2000 м в посл. час морось 8/5 1200 м
[Sc diur, vesp As op]
+27.1 +23.5 81 +37 +37 очень
душно
1010.6 1008.6 0.0
12 8.08 СВ 1 2000 м {морось} 10/4 1000 м
[Sc diur, vesp As op]
+27.0 +25.1 89 +39 +39 очень
душно
1010.4 1008.3 0.4
15 8.08 В 1 15 км дождь {морось} 10/0 2000 м
[As op]
+27.0 +24.8 88 +39 +40 очень
душно
1011.9 1009.8 2
18 8.08 В 2 25 км слабая морось {туман} 9/9 1110 м
[]
+30.0 +24.6 73 +43 +44 опасность
перегрева
1011.7 1009.7 +26.3 +30.0 2
21 8.08 В 3 25 км 9/4 1110 м
[Sc As trans]
+33.7 +24.3 58 +46 +51 опасность
перегрева
1010.2 1008.2
00 9.08 В 4 25 км 9/4 1000 м
[Sc diur, vesp As trans]
+32.0 +24.3 64 +44 +45 опасность
перегрева
1008.9 1006.8 +26.3 +34.2
03 9.08 ЮВ 2 2000 м в посл. час морось 9/0 2000 м
[Ac As]
+30.6 +23.9 67 +42 +42 опасность
перегрева
1011.0 1008.9 0.0
06 9.08 С 1 2000 м 8/0 2000 м
[Ac trans]
+29.6 +24.6 75 +42 +42 опасность
перегрева
1012.0 1010.0 +26.3 +34.2
09 9.08 В 1 2000 м 6/0 2000 м
[As op]
+27.8 +24.6 83 +39 +39 очень
душно
1011.5 1009.5
12 9.08 ЮВ 1 2000 м 9/0 2000 м
[Ac und]
+26.9 +24.6 87 +38 +38 очень
душно
1012.2 1010.2 +26.7 +34.2
15 9.08 ЮВ 1 20 км 9/6 1200 м
[Sc diur, vesp Ci fib]
+27.9 +24.7 83 +40 +42 очень
душно
1013.8 1011.8
18 9.08 С 2 25 км 8/4 1200 м
[Sc diur, vesp Ac trans Ci fib]
+32.9 +25.0 63 +46 +54 опасность
перегрева
1013.8 1011.7 +26.6 +33.5
21 9.08 С 3 25 км 9/9 1110 м
[Sc diur, vesp]
+34.5 +24.9 58 +48 +50 опасность
перегрева
1012.8 1010.7
00 10.08 Ю 5 30 км {морось} 6/1 1000 м
[Sc diur, vesp Ac trans Cs]
+31.2 +24.6 68 +44 +45 опасность
перегрева
1012.2 1010.2 0.4
03 10.08 ЮЗ 3 2000 м 5/0 2000 м
[Ac trans Cs]
+29.4 +25.1 78 +43 +43 опасность
перегрева
1013.6 1011.5
06 10.08 Ю 2 2000 м ясно +27.8 +25.4 87 +41 +41 опасность
перегрева
1015.6 1013.6 +26.6 +35.7
09 10.08 Ю 1 2000 м ясно +26.8 +25.0 90 +39 +39 очень
душно
1015.0 1012.9
12 10.08 Ю 2 2000 м 1/1 1200 м
[Sc diur, vesp]
+26.2 +24.8 92 +37 +37 очень
душно
1014.5 1012.4 +26.2 +35.7
15 10.08 Ю 3 25 км 8/0
[Ci fib]
+27.2 +24.9 87 +39 +42 очень
душно
1015.2 1013.1
18 10.08 ЮВ 1 30 км 6/0
[Ac trans]
+34.0 +26.1 64 +50 +65 опасность
перегрева
1014.2 1012.1 +26.1 +34.0
21 10.08 С 3 25 км 8/4 1200 м
[Sc diur, vesp Ac trans]
+35.7 +24.3 52 +48 +53 опасность
перегрева
1013.0 1011.0
00 11.08 Ю 6 30 км 5/4 1000 м
[Sc Cs]
+33.9 +25.4 61 +48 +49 опасность
перегрева
1011.6 1009.6 +26.1 +37.6
03 11.08 Ю 5 2000 м 8/3 1200 м
[Sc As op Cs]
+29.1 +25.5 81 +43 +43 опасность
перегрева
1013.1 1011.0
09 11.08 Ю 3 2000 м гроза без осадков 8/8 1200 м
[Sc diur, vesp]
+27.0 +24.8 88 +39 +39 очень
душно
1014.4 1012.3
12 11.08 ЮВ 3 2000 м слабый дождь 10/10 600 м
[Cb cap]
+24.1 +23.4 96 +32 +32 очень
душно
1014.6 1012.5 9
15 11.08 Ю 1 15 км слабый дождь 10/0 2000 м
[As op]
+25.2 +24.0 93 +35 +36 очень
душно
1014.8 1012.7 3
18 11.08 ЮЗ 2 30 км {туман} 8/0 2000 м
[As trans]
+31.4 +25.4 71 +46 +56 опасность
перегрева
1014.7 1012.7 3
21 11.08 З 3 30 км 6/1 1110 м
[Sc diur, vesp Ac und]
+35.5 +24.5 53 +48 +56 опасность
перегрева
1013.4 1011.3
00 12.08 ЮЗ 4 30 км 9/1 1000 м
[Cu med, cong Ac trans Ci fib]
+35.6 +25.2 55 +49 +51 опасность
перегрева
1011.3 1009.3 +23.8 +37.1
03 12.08 Ю 3 2000 м 8/0 2000 м
[Ac trans Ci fib]
+30.4 +23.9 68 +42 +42 опасность
перегрева
1012.3 1010.3
06 12.08 Ю 3 2000 м 5/0
[Ci fib]
+27.6 +23.9 80 +38 +38 очень
душно
1014.0 1012.0 +23.8 +37.1
09 12.08 Ю 3 2000 м 4/0
[Ci fib]
+26.0 +23.9 88 +36 +36 очень
душно
1013.7 1011.7
12 12.08 Ю 3 2000 м ясно +25.4 +23.8 91 +35 +35 очень
душно
1013.5 1011.4 +25.4 +37.1
15 12.08 Ю 4 25 км 5/0
[Ci fib]
+26.8 +22.6 78 +35 +38 очень
душно
1015.1 1013.0
18 12.08 З 2 30 км 3/0
[Ci fib]
+33.6 +23.9 57 +45 +63 опасность
перегрева
1014.7 1012.6 +25.4 +33.6
21 12.08 СЗ 3 30 км 3/1 1200 м
[Cu med, cong Ci fib]
+36.8 +23.4 46 +47 +60 опасность
перегрева
1012.7 1010.7
00 13.08 Ю 4 30 км 6/3 1000 м
[Cu med, cong Cs]
+36.3 +25.4 54 +51 +52 опасность
перегрева
1011.3 1009.3 +25.4 +38.6
03 13.08 Ю 5 2000 м 5/1 1200 м
[Sc diur, vesp Cs]
+30.4 +23.4 66 +41 +41 опасность
перегрева
1012.2 1010.2
12 13.08 Ю 3 2000 м ясно +24.6 +23.1 91 +33 +33 очень
душно
1013.8 1011.7 +24.2 +36.8
15 13.08 Ю 4 25 км ясно +26.2 +22.7 81 +35 +38 очень
душно
1014.3 1012.2
18 13.08 З 2 30 км 1/0
[Cs]
+32.7 +23.7 59 +44 +63 опасность
перегрева
1013.9 1011.8 +23.8 +32.7
21 13.08 С 5 30 км 3/1 1200 м
[Sc diur, vesp Cs]
+34.5 +22.7 50 +44 +52 опасность
перегрева
1011.6 1009.5
00 14.08 СЗ 2 30 км 1/1 1000 м
[Sc diur, vesp]
+35.8 +25.2 54 +49 +53 опасность
перегрева
1009.8 1007.8 +23.8 +36.9
03 14.08 Ю 3 2000 м 6/0
[Ci fib]
+31.1 +23.9 66 +43 +43 опасность
перегрева
1010.7 1008.7
06 14.08 Ю 4 2000 м ясно +27.2 +23.6 81 +37 +37 очень
душно
1012.1 1010.0 +23.8 +36.9
09 14.08 Ю 3 2000 м ясно +25.8 +23.2 86 +35 +35 очень
душно
1011.8 1009.8
12 14.08 Ю 4 2000 м ясно +24.9 +22.5 87 +33 +33 очень
душно
1011.5 1009.5 +24.7 +36.9
15 14.08 Ю 4 25 км 3/0
[Ci fib]
+26.4 +22.6 80 +35 +38 очень
душно
1012.1 1010.1
18 14.08 Ю 2 30 км 1/1 1020 м
[Cb cap]
+33.4 +23.9 58 +45 +62 опасность
перегрева
1011.6 1009.6 +24.0 +34.0
21 14.08 С 4 30 км 4/4 1110 м
[Sc diur, vesp]
+35.6 +23.9 51 +47 +54 опасность
перегрева
1009.2 1007.2
00 15.08 В 2 30 км {морось} 6/1 1000 м
[Cb cap Ac trans Ci fib]
+30.0 +25.2 76 +44 +46 опасность
перегрева
1008.7 1006.6 0.4
03 15.08 Ю 3 2000 м 8/6 1200 м
[Sc diur, vesp Cs]
+30.2 +24.5 72 +43 +43 опасность
перегрева
1009.8 1007.8

 

Местоположение метеостанции La Paz (Мексика): широта 24.17 долгота -110.30 высота над уровнем моря 18 м.

В архиве по умолчанию представлена погода в La Paz за последнюю неделю. Архивные данные за месяц целиком и за предыдущие месяцы, начиная с января 2011 года, Вы можете получить, выбрав интересующий диапазон дат из раскрывающегося списка и нажав кнопку "Ввод!".


*Определитесь, кто Вы:
робот инопланетянин человек

Внимание! Время в таблицах - всемирное. Для получения местного времени необходимо прибавить поправку, которая в La Paz равна -6 ч.

Смотрите также архив погоды в соседних городах и на ближайших метеорологических станциях:

Погода в Ciudad Constitucion (Мексика) (166 км)
Погода в Loreto (Мексика) (229 км)
Погода в Culiacan (Мексика) (302 км)
Погода в Choix (Мексика) (354 км)
Погода в Ciudad Obregon (Мексика) (361 км)
Погода в Santa Rosalia (Мексика) (397 км)
Погода в Mazatlan (Мексика) (412 км)
Погода в Guaymas (Мексика) (421 км)
Погода в Empalme (Мексика) (422 км)
Погода в Tepehuanes (Мексика) (481 км)

Пояснения к столбцам:

Ветер - указаны скорость ветра в м/с - средняя за 10 мин, порывы в срок и между сроками (в фигурных скобках) и направление, откуда дует ветер: С - северный, СВ - северо-восточный, В - восточный, ЮВ - юго-восточный, Ю - южный, ЮЗ - юго-западный, З - западный, СЗ - северо-западный.
Видимость - горизонтальная дальность видимости в метрах или километрах. При видимости от 1 до 10 км при отсутствии осадков обычно наблюдается дымка, при ухудшении видимости до 1 км и менее - туман. В сухую погоду видимость может ухудшаться дымом, пылью или мглою.
Явления - указаны атмосферные явления, наблюдавшиеся в срок или в последний час перед сроком; фигурными скобками обозначены явления, наблюдавшиеся между сроками (за 1-3 часа до срока); квадратными скобками обозначены град или гололедные отложения с указанием их диаметра в мм.
Облачность - указаны через наклонную черту общая и нижняя облачность в баллах и высота нижней границы облаков в метрах; квадратными скобками обозначены формы облаков: Ci - перистые, Cs - перисто-слоистые, Cc - перисто-кучевые, Ac - высококучевые, As - высокослоистые, Sc - слоисто-кучевые, Ns - слоисто-дождевые, Cu - кучевые, Cb - кучево-дождевые. Подробнее классификацию облаков см. в Атласе облаков (PDF).
T - Температура воздуха - температура, измеренная на высоте 2 м над землей.
Td - Температура точки росы - температура, при понижении до которой содержащийся в воздухе водяной пар достигнет насыщения.
f - Относительная влажность воздуха - влажноcть воздуха, измеренная на высоте 2 м над землей.
Te - Эффективная температура - температура, которую ощущает одетый по сезону человек в тени. Характеристика душности погоды. При расчете учитывается влияние влажности воздуха и скорости ветра на теплоощущения человека.
Tes - Эффективная температура на солнце - температура, которую ощущает человек, с поправкой на солнечный нагрев. Характеристика знойности погоды. Зависит от высоты солнца над горизонтом, облачности и скорости ветра. Ночью, в пасмурную погоду, а также при ветре 12 м/с и более поправка равна нулю.
P - Атмосферное давление - приведенное к уровню моря атмосферное давление.
Po - Атмосферное давление - измеренное на уровне метеостанции атмосферное давление.
Tmin - Минимальная температура - минимум температуры воздуха на высоте 2 м над землей.
Tmax - Максимальная температура - максимум температуры воздуха на высоте 2 м над землей.
R - Количество осадков - Количество выпавших осадков за период времени, мм. При наведении курсора мыши на число - период времени, за который выпало указанное количество осадков.
R24 - Количество осадков - Количество выпавших осадков за 24 часа, мм.
S - Снежный покров - Высота снежного покрова, см. При наведении курсора мыши на число - состояние снежного покрова и степень покрытия местности в баллах.